Torna al catalogo

FENGYUN 1C DEB

AttivoSSO
NORAD 30726·DEBRIS·🇨🇳 China

Lanciato May 10, 1999 da Taiyuan Satellite Launch Center

Loading…

Prossimi Passaggi (prossime 24 ore)

TLE

AggiornatoSource: Space-Track

Epoca: Sep 14, 2026, 07:33 UTC

1 30726U 99025ASL 26257.31504639  .00000833  00000-0  48267-3 0  9990
2 30726  99.2670 272.2266 0078400 178.0274 303.5691 14.10236109998660

Traccia FENGYUN 1C DEB in tempo reale con AllMySat

Download on the App Store